Temp
12 12 12 11 11 11 10 10 10 10 10 10 10 10 9 9 9 9 9 9 9 9 9 9 9 9 8 8 9 9 9 9 10 10 10 10 10 10 10 10 10 9
12 12 12 12 11 11 11 10 10 10 10 10 10 10 9 9 9 9 9 9 9 9 9 9 8 8 7 7 7 8 8 8 9 9 9 9 9 9 10 10 10 10
13 13 12 12 12 11 11 11 11 10 10 10 10 10 9 9 9 9 9 9 9 9 8 8 8 7 7 6 6 6 7 7 8 8 8 9 9 9 9 10 10 10
13 13 13 12 12 11 11 11 11 10 10 10 10 9 9 9 9 9 9 9 8 8 8 7 7 7 6 6 5 5 5 6 6 6 7 8 8 8 9 9 9 10
13 13 13 12 12 11 11 11 11 10 10 10 9 9 9 9 9 9 9 9 8 8 7 7 6 6 6 6 5 5 5 5 5 5 6 7 7 8 8 9 9 9
13 13 12 12 12 11 11 11 11 10 10 9 9 9 9 9 9 9 9 8 8 7 7 6 6 6 6 6 5 5 5 5 5 4 5 6 7 7 7 8 8 8
13 13 12 12 12 11 11 11 10 10 10 9 9 9 9 9 9 9 8 8 7 6 6 6 6 5 5 5 5 5 5 5 5 4 4 5 6 6 7 7 7 7
13 13 12 12 12 11 11 10 10 10 9 9 9 9 9 9 9 8 8 7 7 6 6 6 5 5 4 4 4 4 5 4 4 4 4 4 4 5 7 7 7 7
13 13 12 12 12 11 11 10 10 9 9 9 9 9 9 9 9 8 7 7 6 6 6 5 5 5 4 4 4 4 4 4 4 3 3 3 3 4 5 5 6 6
13 13 12 12 12 11 11 10 9 9 9 9 9 9 9 9 9 8 7 6 6 6 5 5 5 4 4 4 4 4 3 3 3 2 2 2 3 3 3 3 3 4
12 12 12 12 11 11 10 10 9 9 9 9 9 9 9 9 8 8 7 6 6 5 5 4 4 4 4 3 3 3 3 3 2 2 2 2 2 2 2 2 2 2
12 12 12 11 11 10 10 9 9 8 8 9 9 9 8 8 8 8 7 6 6 5 5 4 4 4 3 3 3 3 2 2 2 2 2 2 2 2 2 2 1 2
12 12 11 11 10 10 9 9 8 8 8 8 8 8 8 8 7 7 7 6 6 5 5 4 4 3 3 3 3 2 2 2 2 2 2 2 2 2 1 1 1 1
11 11 11 10 10 9 8 8 8 8 8 8 8 8 7 7 6 6 6 6 5 5 4 4 3 3 3 3 2 2 2 2 2 2 2 1 1 1 1 1 1 1
11 10 10 9 9 8 8 8 8 8 8 8 8 7 7 6 6 6 5 5 4 4 4 3 3 3 3 2 2 2 1 1 1 1 1 1 1 1 1 1 1 1
10 9 9 9 8 8 8 8 7 7 7 7 7 6 6 5 5 5 4 4 4 3 3 3 3 3 3 2 2 1 1 1 1 1 1 1 1 1 1 1 1 1
9 9 8 8 8 7 7 7 7 7 7 7 6 6 5 5 4 4 4 3 3 3 3 3 3 2 2 1 1 0 0 0 0 0 1 1 1 1 1 1 0 0
9 8 8 7 7 7 7 7 7 6 6 6 6 5 5 4 4 3 3 3 3 3 3 2 2 2 1 1 0 -0 -0 -0 -0 -0 -0 0 0 0 0 0 0 0
8 8 7 7 7 7 7 7 6 6 6 6 5 5 4 4 3 3 3 3 3 3 2 2 2 1 1 0 -0 -0 -1 -1 -1 -1 -1 -1 -0 -0 -0 -0 -0 -0
8 8 7 7 7 6 6 6 6 6 5 5 5 4 4 3 3 3 3 3 2 2 2 2 1 1 0 -0 -0 -1 -1 -1 -1 -1 -1 -1 -1 -1 -1 -1 -1 -1
8 7 7 6 6 6 6 6 6 5 5 5 4 4 3 3 3 3 3 2 2 2 1 1 1 0 -0 -0 -1 -1 -1 -1 -1 -1 -1 -1 -1 -1 -2 -2 -2 -2
7 7 6 6 6 6 6 6 5 5 5 4 4 3 3 3 3 3 2 2 2 1 1 0 0 -0 -1 -1 -1 -1 -1 -1 -1 -1 -1 -1 -2 -2 -2 -2 -2 -2
7 7 6 6 6 6 5 5 5 5 4 4 3 3 3 3 3 2 2 1 1 1 0 -0 -1 -1 -1 -1 -1 -1 -2 -2 -2 -2 -2 -2 -2 -2 -2 -2 -2 -2
7 7 6 6 6 5 5 5 5 4 4 4 4 3 3 3 2 2 1 1 0 -0 -1 -1 -2 -2 -2 -2 -2 -2 -2 -2 -2 -2 -2 -2 -2 -2 -2 -2 -2 -2
7 7 6 6 5 5 5 5 5 4 4 4 3 3 2 2 2 1 1 1 -0 -1 -1 -1 -2 -2 -2 -2 -3 -3 -3 -3 -3 -3 -3 -3 -3 -3 -3 -2 -2 -2
7 6 6 6 5 5 5 4 4 4 3 3 2 2 2 2 2 1 1 0 -0 -1 -1 -1 -2 -2 -2 -2 -3 -3 -3 -3 -3 -3 -3 -3 -3 -3 -3 -3 -3 -3
Height
1519 1519 1520 1520 1520 1520 1521 1521 1521 1522 1522 1522 1523 1523 1523 1524 1524 1524 1524 1524 1524 1523 1523 1523 1522 1522 1521 1521 1521 1520 1519 1518 1518 1519 1519 1520 1520 1520 1521 1521 1521 1522
1517 1517 1518 1518 1519 1519 1519 1520 1520 1520 1520 1521 1521 1522 1522 1522 1522 1522 1522 1522 1521 1521 1520 1520 1519 1518 1518 1517 1517 1517 1517 1516 1515 1515 1516 1516 1517 1517 1517 1517 1518 1518
1515 1515 1516 1516 1517 1517 1517 1518 1518 1519 1519 1519 1519 1520 1520 1520 1520 1520 1520 1519 1519 1518 1518 1517 1516 1515 1515 1514 1514 1514 1514 1513 1513 1512 1512 1512 1513 1513 1513 1514 1514 1515
1512 1513 1514 1514 1515 1515 1515 1516 1516 1517 1517 1517 1517 1518 1518 1518 1518 1518 1517 1517 1516 1516 1515 1514 1514 1513 1513 1512 1511 1511 1510 1510 1510 1510 1509 1509 1509 1509 1510 1510 1511 1511
1510 1511 1511 1512 1513 1513 1513 1513 1514 1515 1515 1515 1515 1515 1515 1515 1515 1515 1515 1514 1513 1513 1512 1512 1511 1511 1511 1510 1509 1508 1508 1507 1507 1507 1506 1506 1506 1506 1506 1507 1507 1508
1508 1509 1509 1510 1510 1511 1511 1511 1512 1512 1513 1513 1513 1513 1513 1513 1513 1512 1512 1511 1510 1510 1509 1509 1509 1508 1508 1508 1507 1506 1505 1505 1504 1504 1504 1503 1503 1503 1503 1503 1503 1503
1505 1506 1507 1508 1508 1508 1509 1509 1510 1510 1510 1511 1511 1511 1511 1511 1510 1509 1508 1508 1507 1507 1507 1506 1506 1505 1505 1505 1504 1504 1503 1502 1502 1501 1501 1500 1500 1499 1499 1500 1499 1499
1503 1504 1504 1505 1506 1506 1506 1507 1508 1508 1508 1509 1509 1509 1509 1508 1507 1506 1506 1505 1505 1505 1504 1504 1504 1503 1503 1502 1502 1501 1500 1500 1499 1498 1498 1497 1496 1496 1496 1496 1496 1496
1500 1501 1502 1503 1503 1503 1504 1505 1505 1506 1506 1506 1507 1507 1506 1505 1505 1504 1504 1503 1503 1502 1502 1502 1501 1501 1501 1500 1499 1499 1498 1497 1496 1496 1495 1494 1493 1493 1493 1493 1492 1492
1497 1498 1499 1500 1500 1501 1502 1502 1503 1504 1504 1504 1504 1504 1503 1503 1502 1502 1501 1501 1501 1500 1500 1499 1499 1498 1498 1498 1497 1496 1495 1494 1494 1493 1492 1492 1491 1490 1490 1490 1489 1488
1494 1495 1496 1497 1498 1499 1499 1500 1501 1501 1502 1502 1502 1501 1501 1501 1500 1500 1499 1499 1498 1498 1497 1497 1496 1495 1495 1494 1494 1493 1493 1492 1491 1490 1490 1489 1488 1488 1487 1487 1486 1486
1491 1492 1494 1494 1495 1496 1497 1498 1498 1499 1499 1499 1499 1499 1499 1498 1498 1498 1497 1497 1496 1495 1494 1494 1493 1493 1492 1491 1491 1490 1490 1489 1488 1488 1487 1487 1486 1485 1484 1484 1483 1482
1488 1490 1491 1492 1493 1494 1495 1496 1496 1496 1497 1497 1497 1497 1496 1496 1496 1495 1495 1494 1493 1492 1492 1491 1490 1490 1489 1489 1488 1487 1487 1486 1485 1485 1484 1483 1483 1482 1481 1480 1480 1479
1486 1487 1488 1490 1491 1492 1493 1494 1494 1494 1494 1494 1495 1494 1494 1494 1493 1493 1492 1491 1490 1489 1489 1488 1487 1487 1486 1486 1485 1484 1484 1483 1482 1481 1480 1480 1479 1478 1478 1477 1476 1476
1484 1485 1487 1488 1489 1490 1491 1491 1492 1492 1492 1492 1492 1492 1491 1491 1490 1490 1489 1488 1487 1486 1486 1485 1485 1484 1483 1483 1482 1481 1481 1480 1479 1478 1477 1476 1475 1474 1474 1474 1473 1472
1482 1483 1485 1486 1487 1488 1489 1490 1490 1490 1490 1490 1490 1489 1489 1488 1487 1487 1486 1485 1485 1484 1483 1483 1482 1481 1480 1480 1479 1478 1477 1476 1475 1474 1473 1472 1471 1470 1469 1469 1468 1468
1480 1481 1483 1484 1486 1487 1488 1488 1489 1488 1488 1488 1487 1487 1486 1485 1485 1484 1483 1483 1482 1481 1481 1480 1479 1478 1477 1476 1475 1474 1473 1472 1470 1469 1469 1468 1467 1466 1464 1464 1463 1463
1477 1479 1481 1483 1484 1485 1486 1487 1487 1486 1486 1486 1485 1485 1484 1484 1483 1482 1481 1481 1480 1479 1478 1477 1476 1475 1474 1473 1472 1471 1470 1468 1467 1465 1464 1463 1462 1461 1460 1459 1458 1457
1476 1478 1480 1482 1483 1484 1484 1485 1485 1485 1484 1484 1484 1484 1483 1481 1481 1480 1479 1478 1477 1476 1475 1474 1473 1471 1470 1469 1468 1467 1466 1465 1463 1461 1459 1458 1457 1456 1455 1454 1453 1452
1475 1478 1479 1481 1482 1482 1483 1483 1483 1483 1483 1483 1482 1482 1480 1479 1478 1477 1476 1475 1474 1473 1472 1470 1469 1468 1467 1466 1464 1463 1462 1461 1459 1457 1455 1453 1452 1451 1450 1448 1448 1447
1475 1477 1479 1480 1481 1481 1482 1482 1482 1481 1481 1481 1480 1479 1478 1477 1476 1475 1473 1472 1471 1470 1468 1466 1465 1464 1463 1462 1461 1459 1458 1456 1454 1452 1450 1449 1447 1446 1445 1443 1442 1441
1474 1476 1478 1479 1480 1480 1480 1480 1480 1480 1479 1479 1478 1477 1476 1475 1474 1472 1471 1470 1468 1467 1465 1462 1461 1460 1459 1458 1456 1455 1453 1451 1449 1447 1445 1443 1441 1440 1439 1437 1436 1435
1473 1475 1477 1478 1478 1478 1478 1478 1478 1477 1477 1476 1476 1475 1474 1473 1472 1470 1469 1467 1465 1463 1461 1458 1457 1456 1455 1453 1452 1450 1448 1446 1444 1442 1440 1437 1435 1434 1432 1430 1429 1429
1472 1474 1476 1476 1476 1476 1477 1476 1476 1475 1474 1474 1474 1473 1472 1471 1469 1468 1466 1464 1462 1459 1457 1454 1452 1451 1450 1448 1447 1446 1444 1441 1439 1437 1434 1432 1429 1427 1426 1424 1422 1421
1471 1473 1474 1474 1475 1474 1474 1474 1473 1473 1473 1472 1472 1471 1470 1469 1467 1465 1463 1461 1458 1456 1453 1451 1448 1446 1445 1443 1441 1440 1439 1437 1435 1432 1429 1426 1424 1421 1418 1417 1415 1414
1470 1471 1471 1472 1473 1473 1473 1472 1471 1471 1470 1470 1469 1468 1467 1466 1464 1462 1459 1457 1454 1452 1449 1447 1444 1441 1440 1438 1436 1435 1434 1432 1430 1427 1423 1421 1418 1415 1411 1409 1408 1406
Wind_Speed
14 14 14 14 14 15 14 13 12 11 10 8 8 9 9 10 11 13 14 16 17 18 19 18 18 17 17 18 19 20 21 21 21 22 23 24 26 28 29 29 29 28
13 13 13 14 15 16 15 14 14 13 12 11 10 11 11 12 13 15 16 18 19 20 19 19 19 19 20 19 18 17 18 19 20 21 23 26 28 30 31 30 30 29
13 12 12 13 14 16 16 16 15 13 13 13 13 13 13 14 15 16 18 19 20 20 19 19 20 20 21 22 21 19 18 18 18 19 22 25 28 30 32 33 32 31
12 12 12 12 13 15 16 16 15 14 13 14 14 15 15 16 17 18 19 19 19 19 19 20 20 20 21 22 22 22 22 21 19 20 21 24 27 30 32 32 33 33
12 11 11 12 12 14 16 16 15 14 14 15 15 16 17 17 18 19 19 19 19 19 20 21 21 20 20 21 22 23 23 22 21 21 21 22 24 27 30 30 30 31
13 12 12 12 13 14 15 15 15 15 15 16 16 17 17 18 18 18 19 19 19 20 21 22 23 21 20 21 22 23 24 24 24 24 23 23 22 23 26 28 29 28
14 13 12 12 13 14 15 15 15 16 16 16 17 18 18 18 18 18 18 19 19 21 23 23 23 23 22 22 22 24 25 25 26 26 25 25 24 23 23 25 28 28
15 14 13 13 14 15 16 16 16 16 16 17 17 17 18 17 18 18 18 19 20 22 24 24 23 23 22 22 23 25 27 27 27 26 25 25 25 25 23 23 24 27
17 16 15 15 15 16 16 16 16 16 16 17 17 17 17 17 18 18 18 19 22 24 24 24 24 24 23 23 24 26 28 28 27 26 25 26 26 26 25 24 24 24
19 17 17 17 16 16 17 16 16 16 16 17 16 16 16 17 18 18 19 20 22 23 25 25 25 25 25 25 25 26 27 27 26 25 25 26 26 27 26 25 25 25
21 19 19 18 18 17 17 17 17 16 16 16 15 15 16 17 18 19 20 21 22 23 25 25 25 25 25 25 25 25 26 26 26 25 26 27 27 28 28 27 27 27
22 21 20 19 19 18 18 17 16 16 15 15 14 15 16 17 18 20 21 23 24 25 25 25 25 25 26 26 27 26 26 26 26 27 27 28 29 29 30 29 29 29
24 22 20 19 18 18 17 16 15 15 14 13 14 15 16 17 19 20 22 23 25 25 26 26 26 26 26 27 27 27 27 27 28 28 29 29 30 30 30 31 31 30
24 22 20 19 18 17 16 16 15 14 13 13 14 15 16 17 19 20 22 23 24 25 26 26 26 26 26 26 26 27 27 28 28 29 30 30 30 30 30 30 30 30
24 22 19 18 17 17 17 15 14 13 13 13 14 15 16 18 19 20 21 22 24 25 26 27 27 28 28 27 27 27 27 28 29 30 31 32 33 33 33 32 32 32
23 21 19 18 18 18 17 15 14 13 12 13 14 15 17 19 19 20 22 23 24 25 27 28 29 29 29 28 27 27 28 29 30 31 32 33 34 35 36 36 37 37
22 21 19 19 19 18 17 15 13 12 12 13 15 16 18 19 20 20 21 22 24 26 28 30 31 31 31 30 28 27 28 30 32 34 35 36 36 37 38 39 39 39
22 21 20 19 19 18 15 13 11 12 13 15 16 17 19 19 19 20 21 23 26 28 29 31 32 33 32 30 29 28 28 29 31 32 34 35 37 39 40 41 41 41
22 21 20 19 18 15 12 11 12 13 15 16 18 19 19 18 18 20 22 25 27 29 30 32 33 33 30 28 28 28 28 29 30 31 33 34 36 38 39 41 41 42
21 20 19 17 14 12 11 12 14 15 16 17 19 19 17 17 19 21 24 26 28 30 32 33 32 31 30 29 29 29 29 29 31 33 35 36 37 38 39 40 41 41
19 18 16 14 12 12 13 14 14 15 17 18 18 16 16 17 20 23 26 28 29 30 31 33 32 31 30 29 29 30 30 32 33 35 38 39 40 40 41 41 42 42
18 18 16 13 12 12 13 14 15 15 17 17 16 15 17 20 23 26 28 30 30 31 32 33 32 31 30 30 30 31 33 34 36 38 39 40 40 40 40 41 42 42
19 17 14 11 11 12 13 14 14 15 15 15 16 18 21 24 26 27 28 29 31 33 33 32 31 30 30 30 31 32 33 34 36 37 37 37 38 39 40 42 43 43
18 15 11 9 10 11 12 13 13 14 15 17 20 22 24 24 25 26 27 28 29 30 30 30 30 30 30 31 31 30 31 32 33 35 36 37 39 40 41 42 43 43
15 11 9 10 11 12 13 13 15 16 18 20 22 22 22 22 24 26 27 27 29 31 32 31 32 31 31 32 32 32 31 31 33 35 37 39 40 41 42 42 42 42
13 10 9 10 10 11 12 13 14 15 17 18 19 19 20 22 24 26 26 27 30 34 35 35 35 34 33 32 32 33 33 33 34 36 38 39 40 42 43 43 42 42
Wind_Direction
246 249 253 253 250 249 251 252 253 259 267 269 268 269 275 282 287 294 301 307 311 313 313 310 307 302 295 289 286 283 277 271 264 257 251 249 251 252 253 253 253 255
246 249 251 253 252 251 253 255 257 263 269 273 275 276 280 286 292 298 304 307 310 311 314 315 315 311 305 300 294 284 278 277 274 265 255 248 246 248 251 254 255 255
245 250 253 254 253 251 254 258 259 261 266 271 276 280 285 290 295 300 303 306 309 311 315 319 319 316 310 305 302 294 287 286 287 280 268 255 248 246 247 249 254 257
247 254 255 255 254 252 254 259 261 262 264 269 274 279 284 290 296 301 304 306 307 311 317 320 319 316 309 304 300 296 293 291 290 288 281 269 257 251 249 249 251 254
248 253 256 256 254 254 256 259 263 264 264 267 271 278 285 293 299 301 303 305 308 314 318 318 317 314 309 302 296 294 294 293 291 289 286 279 269 260 256 255 254 252
244 251 255 255 253 253 257 260 262 263 265 268 273 280 288 294 298 300 303 308 314 317 317 315 315 313 309 303 297 293 291 290 290 289 286 282 278 270 262 259 259 256
246 251 254 256 253 251 253 256 259 261 264 269 274 281 289 294 298 303 310 314 314 313 313 313 312 310 309 306 301 297 293 289 287 285 284 283 281 277 270 263 260 258
245 250 253 255 254 251 251 252 254 259 263 268 275 283 290 295 301 308 312 312 311 310 309 309 307 305 304 301 299 297 295 293 289 285 282 282 282 280 278 273 266 260
241 246 250 253 254 254 253 251 253 257 261 268 277 284 290 297 305 310 310 307 306 305 304 304 303 300 295 292 290 290 292 291 290 289 285 284 284 284 283 282 277 270
238 242 246 249 252 254 254 253 254 257 262 271 279 285 293 302 307 307 304 300 298 298 297 297 297 295 292 289 286 287 289 291 292 292 291 290 290 290 290 288 284 280
235 239 243 247 248 251 253 253 255 259 264 272 279 287 297 303 305 304 301 298 295 292 290 289 289 289 290 290 289 288 289 290 292 293 292 292 291 290 290 289 286 283
233 237 240 243 245 247 249 252 255 259 264 271 281 290 297 301 303 304 302 299 295 290 285 283 282 283 285 286 287 288 289 289 289 289 289 289 289 288 287 286 285 283
232 236 238 240 242 245 247 249 251 255 263 274 285 291 298 303 304 302 299 296 293 289 285 281 280 280 281 283 284 286 288 289 288 286 286 286 286 287 287 287 286 285
230 233 234 237 240 242 244 246 248 256 267 277 288 297 303 305 301 298 298 296 293 290 287 284 283 283 284 283 284 287 289 290 290 289 288 287 286 286 285 286 287 288
226 228 229 233 237 239 242 246 250 260 272 283 294 302 304 301 300 300 300 297 293 291 290 290 289 289 287 283 281 283 286 288 288 287 287 286 284 283 282 282 282 282
222 224 226 228 232 236 241 246 254 264 277 290 297 300 301 301 301 300 297 295 293 293 292 292 292 292 292 289 284 281 280 281 281 281 281 281 281 281 281 280 279 278
218 221 224 226 229 234 238 246 256 270 283 291 293 295 300 301 297 293 290 289 290 291 292 293 294 295 296 295 292 287 282 280 278 277 277 276 277 279 280 280 280 280
215 218 220 223 227 231 239 250 262 275 283 286 289 292 295 295 290 286 285 285 287 289 291 293 295 296 296 296 296 294 291 289 286 285 282 279 277 277 278 279 280 280
212 214 217 221 227 235 246 259 267 274 279 281 285 291 294 294 289 286 284 285 287 290 292 294 295 296 297 298 298 297 296 295 294 293 291 287 283 281 280 280 280 281
210 214 217 222 229 240 252 261 266 271 275 281 288 294 296 291 285 283 283 285 290 294 296 297 297 296 296 297 298 297 297 295 294 292 290 289 287 286 285 284 283 283
208 211 214 219 230 245 255 259 263 269 276 284 291 291 284 279 278 280 285 289 294 297 299 299 298 295 293 293 293 293 292 291 289 287 287 286 286 286 286 285 285 285
202 204 209 219 236 249 254 256 262 272 279 282 281 274 271 274 281 287 293 296 298 301 303 301 297 293 290 289 288 288 288 287 287 287 287 286 286 286 286 286 285 284
198 204 213 229 246 251 254 260 266 271 271 268 267 269 275 283 290 295 299 301 304 307 307 302 297 294 292 290 289 289 289 288 288 287 287 288 288 289 290 289 288 285
203 210 223 236 244 247 251 257 261 263 266 269 273 279 285 292 297 301 305 310 315 318 315 310 304 301 299 297 295 294 292 290 288 288 288 289 291 292 292 291 290 287
207 215 229 233 235 242 249 257 264 270 275 278 281 287 292 298 305 310 314 320 327 330 328 323 317 312 308 303 299 296 293 290 288 287 288 290 293 294 295 294 291 288
199 211 225 231 241 252 263 273 279 281 283 286 289 293 296 302 314 323 325 327 330 332 332 330 324 319 315 310 305 300 296 292 290 290 291 294 295 297 297 295 292 289